Weather History for KHLG - July, 2013

Change the Weather History Date:

Wednesday, July 3, 2013

  Actual Average Record
Temperature  
Mean Temperature 77 °F 72 °F  
Max Temperature 86 °F 82 °F 93 °F (1949)
Min Temperature 68 °F 62 °F 46 °F (2001)
Degree Days  
Heating Degree Days 0 0  
Month to date heating degree days 0 0  
Since 1 June heating degree days 21 38  
Since 1 July heating degree days 0 0  
Cooling Degree Days 12    
Month to date cooling degree days 28  
Year to date cooling degree days 268  
Since 1 June cooling degree days 162  
Growing Degree Days 26 (Base 50)    
Moisture  
Dew Point 67 °F    
Average Humidity 78    
Maximum Humidity 100    
Minimum Humidity 55    
Precipitation  
Precipitation 0.53 in 0.11 in 0.97 in (2008)
Month to date precipitation 0.96 0.32  
Sea Level Pressure  
Sea Level Pressure 30.14 in    
Wind  
Wind Speed 6 mph (SSE)    
Max Wind Speed 13 mph    
Max Gust Speed 16 mph    
Visibility 9 miles    
Events Fog , Rain    
T = Trace of Precipitation, MM = Missing Value Source: NWS Daily Summary

Daily Weather History Graph

Daily Weather History Graph

Search for Another Location

Airport or City:

Trip Planner

Search our weather history database for the weather conditions in past years. The results will help you decide how hot, cold, wet, or windy it might be!

Date:

Astronomy

Jul. 03, 2013 Rise Set
Actual Time 5:58 AM EDT 8:55 PM EDT
Civil Twilight 5:25 AM EDT 9:28 PM EDT
Nautical Twilight 4:43 AM EDT 10:09 PM EDT
Astronomical Twilight 3:55 AM EDT 10:57 PM EDT
Moon 2:35 AM EDT (7/3) 5:04 PM EDT (7/3)
Length of Visible Light 16h 02m
Length of Day
14h 57m
Waning Crescent, 18% of the Moon is Illuminated
Jul 3
Waning Crescent
Jul 8
New
Jul 15
First Quarter
Jul 22
Full
Jul 29
Last Quarter

Hourly Weather History & Observations

Time (EDT) Temp. Heat Index Dew Point Humidity Pressure Visibility Wind Dir Wind Speed Gust Speed Precip Events Conditions
12:53 AM 72.0 °F - 66.0 °F 81% 30.08 in 10.0 mi Calm Calm - N/A   Clear
1:53 AM 69.1 °F - 66.0 °F 90% 30.08 in 10.0 mi SE 4.6 mph - N/A   Clear
2:53 AM 69.1 °F - 66.0 °F 90% 30.07 in 10.0 mi SE 6.9 mph - N/A   Clear
3:53 AM 69.1 °F - 64.9 °F 87% 30.07 in 10.0 mi SE 4.6 mph - N/A   Partly Cloudy
4:53 AM 69.1 °F - 64.9 °F 87% 30.09 in 10.0 mi SSE 4.6 mph - N/A   Clear
5:53 AM 69.1 °F - 64.9 °F 87% 30.11 in 10.0 mi SE 3.5 mph - N/A   Mostly Cloudy
6:53 AM 69.1 °F - 64.9 °F 87% 30.13 in 10.0 mi SSE 3.5 mph - N/A   Clear
7:53 AM 71.1 °F - 66.0 °F 84% 30.15 in 10.0 mi South 3.5 mph - N/A   Clear
8:53 AM 73.0 °F - 66.0 °F 79% 30.16 in 10.0 mi South 5.8 mph - N/A   Clear
9:53 AM 75.0 °F - 66.9 °F 76% 30.16 in 10.0 mi South 8.1 mph - N/A   Clear
10:53 AM 77.0 °F - 66.9 °F 71% 30.17 in 10.0 mi SSW 6.9 mph - N/A   Scattered Clouds
11:53 AM 79.0 °F - 69.1 °F 72% 30.17 in 10.0 mi SSW 8.1 mph - N/A   Mostly Cloudy
12:16 PM 78.8 °F - 68.0 °F 69% 30.19 in 10.0 mi South 8.1 mph - N/A   Mostly Cloudy
12:32 PM 80.6 °F 83.9 °F 69.8 °F 70% 30.19 in 10.0 mi Calm Calm - N/A   Mostly Cloudy
12:53 PM 80.1 °F 82.7 °F 68.0 °F 67% 30.17 in 10.0 mi South 6.9 mph - N/A   Mostly Cloudy
1:53 PM 82.0 °F 84.5 °F 66.9 °F 60% 30.16 in 10.0 mi SW 8.1 mph - N/A   Scattered Clouds
2:53 PM 82.9 °F 85.4 °F 66.9 °F 58% 30.14 in 10.0 mi South 9.2 mph - N/A   Mostly Cloudy
3:53 PM 84.9 °F 87.6 °F 66.9 °F 55% 30.12 in 10.0 mi South 8.1 mph - N/A   Partly Cloudy
4:53 PM 82.9 °F 85.4 °F 66.9 °F 58% 30.12 in 10.0 mi SSE 11.5 mph 16.1 mph N/A   Scattered Clouds
5:53 PM 82.0 °F 84.9 °F 68.0 °F 62% 30.11 in 10.0 mi SSE 4.6 mph - N/A   Clear
6:53 PM 80.1 °F 82.7 °F 68.0 °F 67% 30.12 in 10.0 mi SSE 3.5 mph - N/A   Clear
7:53 PM 79.0 °F - 69.1 °F 72% 30.13 in 10.0 mi SSE 6.9 mph - N/A   Mostly Cloudy
8:53 PM 73.9 °F - 68.0 °F 82% 30.15 in 10.0 mi NW 9.2 mph - N/A   Overcast
9:00 PM 71.6 °F - 68.0 °F 88% 30.18 in 1.8 mi West 9.2 mph - 0.12 in Rain Heavy Rain
9:04 PM 71.6 °F - 69.8 °F 94% 30.17 in 0.8 mi Variable 5.8 mph - 0.26 in Rain Heavy Rain
9:12 PM 71.6 °F - 69.8 °F 94% 30.18 in 0.5 mi ESE 8.1 mph - 0.52 in Fog , Rain Heavy Rain
9:16 PM 73.4 °F - 68.0 °F 83% 30.18 in 1.0 mi Variable 3.5 mph - 0.53 in Rain Light Rain
9:21 PM 73.4 °F - 69.8 °F 88% 30.18 in 3.0 mi North 4.6 mph - 0.53 in Rain Light Rain
9:32 PM 73.4 °F - 68.0 °F 83% 30.18 in 10.0 mi Calm Calm - 0.53 in   Mostly Cloudy
9:53 PM 72.0 °F - 69.1 °F 91% 30.17 in 9.0 mi ESE 3.5 mph - 0.53 in   Partly Cloudy
10:53 PM 70.0 °F - 69.1 °F 97% 30.17 in 10.0 mi Calm Calm - N/A   Clear
11:53 PM 70.0 °F - 69.1 °F 97% 30.17 in 9.0 mi ESE 3.5 mph - N/A   Clear